Simultaneous Nadir Overpasses (SNOs) Predictions

Prediction of SNOs between GOES-15 and NOAA-19 Satellite Orbit:

Table of predicted SNOs for the next 14.0 days since TLE Epoch: 4/18/2025
Index Date Time (GOES-15) GOES-15 Lat,Lon NOAA-19 Lat,Lon Distance(km) Time Diff (sec)
1 04/19/2025 17:30:48 0.16, 61.37 0.70, 63.59 254.26 80
2 04/22/2025 05:46:40 -0.17, 61.44 0.38, 59.18 258.97 80
3 04/23/2025 05:36:43 -0.17, 61.46 -0.32, 62.24 88.87 80
4 04/24/2025 05:24:07 -0.17, 61.47 -1.02, 65.30 436.58 80
5 04/25/2025 17:55:32 0.17, 61.46 -0.66, 57.74 423.00 80
6 04/26/2025 17:42:56 0.17, 61.47 0.04, 60.81 75.67 80
7 04/27/2025 17:27:39 0.17, 61.49 0.74, 63.87 271.54 80
8 04/30/2025 05:48:49 -0.18, 61.59 0.32, 59.46 243.22 80
9 05/01/2025 05:33:40 -0.18, 61.61 -0.40, 62.52 103.43 73
10 05/02/2025 05:23:36 -0.19, 61.64 -1.12, 65.58 450.00 80
